Location: Lombray
(49.5154°N, 3.1089°E)
Time: 21:58:26
(UTC+00:00)

Cosmos 1354 Rocket - Pass Details

Date: 15 May 2026
Orbit: 761 x 778 km, 74.0° (Epoch: 10 June)

Event Time Altitude Azimuth Distance (km) Brightness Sun altitude
Rises 21:57:46 0° 334° (NNW) 3,247 9.0 -17.5°
Reaches altitude 10° 22:00:10 10° 333° (NNW) 2,314 7.8 -17.7°
Maximum altitude 22:05:23 70° 250° (WSW) 816 4.1 -18.0°
Enters shadow 22:07:47 32° 176° (S) 1,292 4.6 -18.2°
